Regional Weather Roundup
Issued by NWS

Home | Current Version | Previous Version | Text Only | Print | Product List | Glossary On
Versions: 1 2 3 4 5 6 7 8 9 10 11 12 13 14 15 16 17 18 19 20 21 22 23 24 25 26 27 28 29 30 31 32 33 34 35 36 37 38 39 40 41 42 43 44 45 46 47 48 49 50
624
ASUS43 KLSX 090010
RWRMO

WEATHER SUMMARY FOR MISSOURI
NATIONAL WEATHER SERVICE SPRINGFIELD MO
600 PM CST THU DEC 08 2016

NOTE: "FAIR" INDICATES FEW OR NO CLOUDS BELOW 12,000 FEET WITH NO
       SIGNIFICANT WEATHER AND/OR OBSTRUCTIONS TO VISIBILITY.
       CURRENT SKY AND/OR WEATHER CONDITIONS ARE NOT AVAILABLE FOR
       CHILLICOTHE AND FARMINGTON.

MOZ001>031-035>038-043-044-053-054-090100-
...NORTHERN AND WESTERN MISSOURI...

CITY           SKY/WX    TMP DP  RH WIND       PRES   REMARKS
KANSAS CTY INT PTCLDY    20   8  60 NW7       30.62R WCI  11
6HR MIN TEMP:  20; 6HR MAX TEMP:  25;

KANSAS C DTWN  CLEAR     24  10  55 NW6       30.64R WCI  17
6HR MIN TEMP:  23; 6HR MAX TEMP:  27;

LEE`S SUMMIT   CLEAR     21  10  62 MISG      30.62R
6HR MIN TEMP:  21; 6HR MAX TEMP:  26;

ST JOSEPH      CLEAR     18   9  68 NW7       30.64R WCI   9
6HR MIN TEMP:  18; 6HR MAX TEMP:  26;

CHILLICOTHE      N/A     23  10  57 NW7       30.61R WCI  15
6HR MIN TEMP:  23; 6HR MAX TEMP:  27; 6HR PCP:  0.01;

KIRKSVILLE     CLEAR     19  10  68 W7        30.55R WCI  10
6HR MIN TEMP:  19; 6HR MAX TEMP:  26;


$$
MOZ066>068-077>081-088>096-101>105-090100-
...SOUTHWEST MISSOURI...

CITY           SKY/WX    TMP DP  RH WIND       PRES   REMARKS
SPRINGFIELD    CLEAR     23  12  62 NW6       30.58R WCI  16
6HR MIN TEMP:  23; 6HR MAX TEMP:  30;

JOPLIN         CLEAR     24  14  65 NW8       30.64R WCI  15
6HR MIN TEMP:  23; 6HR MAX TEMP:  30;

BRANSON        PTCLDY    25  10  54 NW6       30.58R WCI  18

$$
MOZ032>034-039>042-045>050-055>058-069>072-090100-
...CENTRAL MISSOURI...

CITY           SKY/WX    TMP DP  RH WIND       PRES   REMARKS
COLUMBIA       CLEAR     23  11  60 W9        30.57R WCI  13
6HR MIN TEMP:  23; 6HR MAX TEMP:  28;

JEFFERSON CITY CLEAR     24  12  60 W8        30.61R WCI  15
6HR MIN TEMP:  24; 6HR MAX TEMP:  28;

ROLLA          CLEAR     22  12  65 NW9       30.54R WCI  12
6HR MIN TEMP:  22; 6HR MAX TEMP:  28; 6HR PCP: TRACE;

SEDALIA        CLEAR     23  12  62 W10       30.61R WCI  12
6HR MIN TEMP:  23; 6HR MAX TEMP:  28;

WHITEMAN AFB   PTCLDY    26  11  54 W8        30.61R WCI  17
WARRENSBURG    PTCLDY    21  12  68 W6        30.62S WCI  14
OSAGE BEACH    CLEAR     24  13  62 NW8       30.60R WCI  15

$$
MOZ051-052-059>065-090100-
...EAST CENTRAL MISSOURI...

CITY           SKY/WX    TMP DP  RH WIND       PRES   REMARKS
ST LOUIS INTL  PTCLDY    26  11  52 NW8       30.55R WCI  18
6HR MIN TEMP:  26; 6HR MAX TEMP:  31;

SPIRIT OF STL  CLEAR     25  13  60 NW9       30.56R WCI  15
6HR MIN TEMP:  25; 6HR MAX TEMP:  31;

ST CHARLES     MOCLDY    26  14  60 W10       30.55R WCI  16
6HR MIN TEMP:  26; 6HR MAX TEMP:  30;


$$
MOZ072>076-082>087-097>100-106>115-090100-
...SOUTH CENTRAL AND SOUTHEAST MISSOURI...

CITY           SKY/WX    TMP DP  RH WIND       PRES   REMARKS
CAPE GIRARDEAU CLEAR     30  15  53 NW8       30.53R WCI  22
6HR MIN TEMP:  29; 6HR MAX TEMP:  36;

FARMINGTON     CLEAR     26  14  60 NW10      30.53R WCI  16
6HR MIN TEMP:  26; 6HR MAX TEMP:  32;

POPLAR BLUFF   CLEAR     31  13  47 NW7       30.54R WCI  24
6HR MIN TEMP:  31; 6HR MAX TEMP:  37;

WEST PLAINS    CLEAR     27  11  51 NW10      30.54R WCI  17
6HR MIN TEMP:  27; 6HR MAX TEMP:  34;


$$




USA.gov is the U.S. government's official web portal to all federal, state and local government web resources and services.